This demonstration page uses our WeatherBlox Daily Observations layout. Learn more.

Left ArrowRight Arrow

38.80484, -77.04692

Hourly Observations for June 7, 2022

Temp ( °F °C ) Dew Point ( °F °C ) Humidity (%) Winds ( mph kmh ) Pressure ( in mb ) Visibility ( mi km ) Precip ( " mm )
12:52 am 00:52 Mostly Cloudy 67 19.4 56 13.3 68 68 SSE 12 19 30.04 1017 10 16 0.00 0.00
1:52 am 01:52 Mostly Cloudy 66 18.9 57 13.9 73 73 S 9 15 30.03 1017 10 16 0.00 0.00
2:52 am 02:52 Mostly Cloudy 65 18.3 58 14.4 78 78 SSE 7 11 30.01 1016 10 16 0.00 0.00
3:52 am 03:52 Mostly Cloudy 64 17.8 58 14.4 81 81 S 6 9 30.01 1016 10 16 0.00 0.00
4:52 am 04:52 Partly Cloudy 65 18.3 59 15 81 81 SSE 6 9 30.01 1016 10 16 0.00 0.00
5:52 am 05:52 Mostly Cloudy 65 18.3 60 15.6 84 84 SE 6 9 30.02 1017 10 16 0.00 0.00
6:52 am 06:52 Mostly Cloudy 65 18.3 60 15.6 84 84 SSE 7 11 30.03 1017 10 16 0.00 0.00
7:52 am 07:52 Mostly Cloudy 68 20 61 16.1 78 78 S 7 11 30.03 1017 10 16 0.00 0.00
8:52 am 08:52 Cloudy 71 21.7 63 17.2 76 76 S 10 17 30.02 1017 10 16 0.00 0.00
9:52 am 09:52 Cloudy 75 23.9 64 17.8 69 69 S 14 22 30.01 1016 10 16 0.00 0.00
10:52 am 10:52 Cloudy 78 25.6 64 17.8 62 62 S 17 28 30.00 1016 10 16 0.00 0.00
11:52 am 11:52 Cloudy 80 26.7 62 16.7 54 54 SSW 15 24 29.99 1016 10 16 0.00 0.00
12:52 pm 12:52 Cloudy 78 25.6 62 16.7 58 58 S 14 22 29.98 1015 10 16 0.00 0.00
1:52 pm 13:52 Cloudy 79 26.1 64 17.8 60 60 S 15 24 29.97 1015 10 16 0.00 0.00
2:52 pm 14:52 Cloudy 79 26.1 63 17.2 58 58 SSW 12 19 29.95 1014 10 16 0.00 0.00
3:52 pm 15:52 Cloudy with Light Rain 76 24.4 65 18.3 69 69 SSW 8 13 29.93 1014 8 13 0.01 0.25
4:52 pm 16:52 Cloudy with Light Rain 75 23.9 67 19.4 76 76 WSW 3 6 29.93 1014 9 14 0.04 1.02
5:52 pm 17:52 Cloudy 73 22.8 68 20 84 84 ESE 5 7 29.91 1013 10 16 0.05 1.27
6:52 pm 18:52 Cloudy 73 22.8 68 20 84 84 SSE 6 9 29.90 1013 10 16 0.00 0.00
7:32 pm 19:32 Cloudy with Light Rain 73 22.8 68 20 84 84 SSE 6 9 29.91 1013 4 6 0.03 0.76
7:52 pm 19:52 Cloudy with Light Rain 73 22.8 68 20 84 84 SSE 7 11 29.90 1012 9 14 0.03 0.76
8:52 pm 20:52 Cloudy with Light Rain 73 22.8 68 20 84 84 SSE 8 13 29.91 1013 7 11 0.01 0.25
9:52 pm 21:52 Cloudy with Light Rain 73 22.8 67 19.4 81 81 SSE 6 9 29.92 1013 8 13 0.02 0.51
10:52 pm 22:52 Cloudy with Light Rain 73 22.8 68 20 84 84 S 5 7 29.92 1013 5 8 0.00 0.00
11:52 pm 23:52 Mostly Cloudy 72 22.2 67 19.4 84 84 S 7 11 29.91 1013 10 16 0.04 1.02

Powered by AerisWeather